Location: Bodest
(46.3000°N, 22.5667°E)
Time: 00:28:54
(UTC+00:00)

Cosmos 1697 Rocket - Pass Details

Date: 16 October 2021
Orbit: 834 x 842 km, 71.0° (Epoch: 02 December)

Event Time Altitude Azimuth Distance (km) Brightness Sun altitude
Rises 17:35:35 0° 232° (SW) 3,388 6.5 -20.4°
Reaches altitude 10° 17:38:13 10° 240° (WSW) 2,457 5.8 -20.9°
Maximum altitude 17:43:23 36° 307° (NW) 1,308 4.2 -21.8°
Drops below altitude 10° 17:48:35 10° 13° (NNE) 2,466 5.1 -22.7°
Sets 17:51:14 0° 22° (NNE) 3,403 5.7 -23.1°
